CW8398 Weather Reports


Display with metric or nautical units.
time (UTC)temp
F
wind
direction
speed
MPH
gust
MPH
rain 1hr
in
rain 24hr
in
rain mn
in
humidity
%
barometer
mb
20260508230303 39 355 0.0 0.0 0.00 0.00 0.00 81 1024.9
20260508225804 39 355 0.0 0.0 0.00 0.00 0.00 80 1024.9
20260508225306 39 355 0.0 0.0 0.00 0.00 0.00 80 1024.9
20260508224304 39 355 0.0 0.0 0.00 0.00 0.00 77 1024.9
20260508223804 39 355 0.0 0.0 0.00 0.00 0.00 76 1025.0
20260508222803 39 355 0.0 0.0 0.00 0.00 0.00 75 1025.0
20260508222306 39 355 0.0 0.0 0.00 0.00 0.00 75 1025.0
20260508221804 39 355 0.0 0.0 0.00 0.00 0.00 75 1025.0
20260508221303 39 355 0.0 0.0 0.00 0.00 0.00 75 1025.0
20260508220816 39 355 0.0 0.0 0.00 0.00 0.00 75 1025.0
20260508220303 39 355 0.0 0.0 0.00 0.00 0.00 74 1025.0
20260508215802 39 355 0.0 0.0 0.00 0.00 0.00 71 1025.0
20260508215301 39 355 0.0 0.0 0.00 0.00 0.00 67 1025.0
20260508214802 39 355 0.0 0.0 0.00 0.00 0.00 67 1025.2
20260508213802 39 355 0.0 0.0 0.00 0.00 0.00 68 1025.2
20260508212802 39 355 0.0 0.0 0.00 0.00 0.00 70 1025.2
20260508212306 39 355 0.0 0.0 0.00 0.00 0.00 71 1025.1
20260508211302 40 355 0.0 0.0 0.00 0.00 0.00 70 1025.1
20260508210802 40 355 0.0 0.0 0.00 0.00 0.00 69 1025.1
20260508210302 40 355 0.0 0.0 0.00 0.00 0.00 68 1025.1
20260508205305 40 355 0.0 0.0 0.00 0.00 0.00 65 1025.1
20260508204802 40 355 0.0 0.0 0.00 0.00 0.00 64 1025.1
20260508204302 40 355 0.0 0.0 0.00 0.00 0.00 64 1025.1
20260508203802 40 355 0.0 0.0 0.00 0.00 0.00 64 1025.1
20260508203302 41 355 0.0 0.0 0.00 0.00 0.00 62 1025.1
20260508202802 41 355 0.0 0.0 0.00 0.00 0.00 62 1025.1
20260508201802 41 355 0.0 0.0 0.00 0.00 0.00 58 1025.1
20260508201302 41 355 0.0 0.0 0.00 0.00 0.00 57 1025.0
20260508200802 41 355 0.0 0.0 0.00 0.00 0.00 57 1025.0
20260508200302 42 355 0.0 0.0 0.00 0.00 0.00 55 1025.0
20260508195802 42 355 0.0 0.0 0.00 0.00 0.00 55 1025.0
20260508195305 42 355 0.0 0.0 0.00 0.00 0.00 55 1024.9
20260508194802 42 355 0.0 0.0 0.00 0.00 0.00 54 1024.9
20260508193302 43 355 0.0 0.0 0.00 0.00 0.00 51 1024.9
20260508192802 43 355 0.0 0.0 0.00 0.00 0.00 50 1024.9
20260508192305 44 355 0.0 0.0 0.00 0.00 0.00 50 1024.8
20260508191802 44 355 0.0 0.0 0.00 0.00 0.00 50 1024.8
20260508191302 44 355 0.0 0.0 0.00 0.00 0.00 50 1024.8
20260508190802 44 355 0.0 0.0 0.00 0.00 0.00 50 1024.8
20260508185802 45 355 0.0 0.0 0.00 0.00 0.00 50 1024.6
20260508185306 45 355 0.0 0.0 0.00 0.00 0.00 48 1024.6
20260508184802 45 355 0.0 0.0 0.00 0.00 0.00 47 1024.6
20260508183302 46 355 0.0 0.0 0.00 0.00 0.00 45 1024.6
20260508182802 47 355 0.0 0.0 0.00 0.00 0.00 44 1024.6
20260508182306 47 355 0.0 0.0 0.00 0.00 0.00 44 1024.6
20260508181801 47 355 0.0 0.0 0.00 0.00 0.00 43 1024.6
20260508181302 48 355 0.0 0.0 0.00 0.00 0.00 42 1024.6
20260508180302 49 355 0.0 0.0 0.00 0.00 0.00 40 1024.6
20260508175802 49 355 0.0 0.0 0.00 0.00 0.00 40 1024.6
20260508175305 49 355 0.0 0.0 0.00 0.00 0.00 38 1024.6
20260508174802 50 355 0.0 0.0 0.00 0.00 0.00 38 1024.5
20260508173302 51 355 0.0 0.0 0.00 0.00 0.00 36 1024.5
20260508172306 51 355 0.0 2.0 0.00 0.00 0.00 36 1024.5
20260508171802 52 344 0.0 1.0 0.00 0.00 0.00 35 1024.5
20260508165802 52 222 1.0 2.0 0.00 0.00 0.00 34 1024.7
20260508165306 53 202 0.0 2.0 0.00 0.00 0.00 34 1024.7
20260508164802 53 191 0.0 2.0 0.00 0.00 0.00 35 1024.7
20260508164302 53 137 1.0 3.0 0.00 0.00 0.00 34 1024.8
20260508163802 53 0 1.0 5.0 0.00 0.00 0.00 33 1024.8
20260508163302 54 26 2.0 3.0 0.00 0.00 0.00 34 1024.8
20260508162802 54 102 1.0 3.0 0.00 0.00 0.00 35 1024.8
20260508162306 54 341 1.0 3.0 0.00 0.00 0.00 34 1024.9
20260508161302 54 155 1.0 3.0 0.00 0.00 0.00 34 1024.9
20260508160801 53 222 1.0 5.0 0.00 0.00 0.00 34 1024.9
20260508160303 54 162 2.0 7.0 0.00 0.00 0.00 31 1024.9
20260508155802 54 163 2.0 5.0 0.00 0.00 0.00 33 1024.9
20260508155305 54 180 3.0 6.0 0.00 0.00 0.00 31 1024.9
20260508154303 54 183 2.0 5.0 0.00 0.00 0.00 32 1025.0
20260508153802 54 198 2.0 7.0 0.00 0.00 0.00 33 1025.0
20260508153302 54 123 2.0 3.0 0.00 0.00 0.00 32 1025.0
20260508152802 54 159 2.0 8.0 0.00 0.00 0.00 35 1025.0
20260508151802 54 179 4.0 9.0 0.00 0.00 0.00 32 1025.0
20260508151302 55 177 3.0 9.0 0.00 0.00 0.00 32 1025.0
20260508150802 54 333 2.0 8.0 0.00 0.00 0.00 34 1025.0
20260508150302 55 163 2.0 7.0 0.00 0.00 0.00 32 1025.1
20260508145802 55 149 2.0 6.0 0.00 0.00 0.00 32 1025.1
20260508145302 55 201 2.0 5.0 0.00 0.00 0.00 34 1025.1
20260508144802 55 159 2.0 6.0 0.00 0.00 0.00 33 1025.1
20260508144302 55 181 5.0 9.0 0.00 0.00 0.00 33 1025.1
20260508142306 54 179 3.0 7.0 0.00 0.00 0.00 36 1025.1
20260508141802 55 191 3.0 7.0 0.00 0.00 0.00 36 1025.1
20260508141303 54 155 2.0 7.0 0.00 0.00 0.00 38 1025.1
20260508140802 54 174 5.0 8.0 0.00 0.00 0.00 38 1025.2
20260508135802 54 168 5.0 8.0 0.00 0.00 0.00 37 1025.2
20260508134802 54 173 5.0 15.0 0.00 0.00 0.00 37 1025.1
20260508133802 54 182 5.0 12.0 0.00 0.00 0.00 38 1025.2
20260508133303 54 170 6.0 12.0 0.00 0.00 0.00 37 1025.3
20260508132802 55 183 6.0 12.0 0.00 0.00 0.00 37 1025.3
20260508131802 56 171 3.0 6.0 0.00 0.00 0.00 33 1025.3
20260508131302 56 169 2.0 6.0 0.00 0.00 0.00 31 1025.3
20260508130802 56 138 3.0 5.0 0.00 0.00 0.00 32 1025.3
20260508130302 56 157 3.0 12.0 0.00 0.00 0.00 31 1025.3
20260508125802 55 177 3.0 12.0 0.00 0.00 0.00 27 1025.3
20260508124802 56 204 3.0 7.0 0.00 0.00 0.00 30 1025.3
20260508124302 56 94 1.0 7.0 0.00 0.00 0.00 30 1025.3
20260508123802 56 112 3.0 10.0 0.00 0.00 0.00 28 1025.3
20260508122306 57 160 2.0 6.0 0.00 0.00 0.00 27 1025.3
20260508121302 58 230 2.0 5.0 0.00 0.00 0.00 26 1025.3
20260508120802 56 10 2.0 5.0 0.00 0.00 0.00 26 1025.3
20260508120302 56 38 3.0 8.0 0.00 0.00 0.00 28 1025.3
20260508115802 56 212 2.0 5.0 0.00 0.00 0.00 28 1025.3
20260508115306 56 309 1.0 5.0 0.00 0.00 0.00 28 1025.3
20260508113303 56 77 3.0 7.0 0.00 0.00 0.00 31 1025.3
20260508112802 56 178 2.0 7.0 0.00 0.00 0.00 31 1025.3
20260508112306 57 181 3.0 8.0 0.00 0.00 0.00 30 1025.3
20260508111802 56 310 2.0 6.0 0.00 0.00 0.00 31 1025.3
20260508111302 56 66 3.0 7.0 0.00 0.00 0.00 30 1025.3
20260508110802 56 115 2.0 7.0 0.00 0.00 0.00 30 1025.3
20260508110302 57 149 2.0 5.0 0.00 0.00 0.00 30 1025.3
20260508105802 56 186 2.0 6.0 0.00 0.00 0.00 32 1025.3
20260508105305 56 135 2.0 6.0 0.00 0.00 0.00 32 1025.3
20260508104302 56 151 2.0 5.0 0.00 0.00 0.00 34 1025.3
20260508103802 55 126 2.0 8.0 0.00 0.00 0.00 34 1025.3
20260508103302 55 52 2.0 6.0 0.00 0.00 0.00 36 1025.3
20260508102802 55 77 3.0 7.0 0.00 0.00 0.00 36 1025.3
20260508102306 55 42 3.0 6.0 0.00 0.00 0.00 35 1025.3
20260508101802 55 52 2.0 7.0 0.00 0.00 0.00 38 1025.3
20260508101302 55 31 3.0 8.0 0.00 0.00 0.00 35 1025.3
20260508100802 55 25 3.0 8.0 0.00 0.00 0.00 35 1025.3
20260508100303 55 22 3.0 8.0 0.00 0.00 0.00 35 1025.3
20260508095803 55 76 2.0 7.0 0.00 0.00 0.00 38 1025.3
20260508095306 55 247 2.0 8.0 0.00 0.00 0.00 38 1025.3
20260508094302 55 148 2.0 8.0 0.00 0.00 0.00 38 1025.3
20260508093802 54 36 3.0 8.0 0.00 0.00 0.00 39 1025.3
20260508093302 55 37 2.0 7.0 0.00 0.00 0.00 41 1025.3
20260508092802 55 130 2.0 5.0 0.00 0.00 0.00 42 1025.3
20260508092311 54 188 1.0 5.0 0.00 0.00 0.00 43 1025.3
20260508091802 54 188 3.0 6.0 0.00 0.00 0.00 42 1025.3
20260508090303 54 160 3.0 8.0 0.00 0.00 0.00 42 1025.2
20260508085802 54 183 2.0 6.0 0.00 0.00 0.00 44 1025.2
20260508084303 54 89 2.0 6.0 0.00 0.00 0.00 44 1025.2
20260508083802 54 189 2.0 5.0 0.00 0.00 0.00 44 1025.2
20260508082802 53 205 2.0 3.0 0.00 0.00 0.00 43 1025.1
20260508082306 53 117 2.0 3.0 0.00 0.00 0.00 44 1024.7
20260508081303 53 188 1.0 3.0 0.00 0.00 0.00 46 1024.7
20260508080803 53 353 2.0 3.0 0.00 0.00 0.00 46 1024.7
20260508080303 53 207 2.0 8.0 0.00 0.00 0.00 46 1024.7
20260508075803 53 44 2.0 8.0 0.00 0.00 0.00 45 1024.7
20260508075307 53 48 2.0 6.0 0.00 0.00 0.00 45 1024.7
20260508074802 53 254 1.0 3.0 0.00 0.00 0.00 44 1024.7
20260508074302 53 0 1.0 3.0 0.00 0.00 0.00 46 1024.7
20260508073802 52 275 1.0 3.0 0.00 0.00 0.00 47 1024.6
20260508073302 52 70 2.0 7.0 0.00 0.00 0.00 45 1024.6
20260508072803 52 51 3.0 12.0 0.00 0.00 0.00 47 1024.6
20260508072306 52 106 2.0 6.0 0.00 0.00 0.00 48 1024.4
20260508071802 51 156 2.0 6.0 0.00 0.00 0.00 49 1024.4
20260508070803 51 113 1.0 6.0 0.00 0.00 0.00 49 1024.4
20260508070302 51 343 2.0 6.0 0.00 0.00 0.00 49 1024.4
20260508065802 51 210 2.0 6.0 0.00 0.00 0.00 48 1024.1
20260508065306 51 315 1.0 3.0 0.00 0.00 0.00 50 1024.1
20260508064802 50 305 2.0 8.0 0.00 0.00 0.00 49 1024.1
20260508064302 50 143 2.0 8.0 0.00 0.00 0.00 50 1024.1
20260508063802 50 132 1.0 3.0 0.00 0.00 0.00 52 1024.1
20260508063302 50 137 3.0 7.0 0.00 0.00 0.00 52 1024.0
20260508062803 49 51 1.0 3.0 0.00 0.00 0.00 51 1024.0
20260508062306 49 314 2.0 6.0 0.00 0.00 0.00 52 1023.5
20260508061802 49 163 2.0 6.0 0.00 0.00 0.00 51 1023.5
20260508061302 48 118 2.0 5.0 0.00 0.00 0.00 52 1023.5
20260508060802 48 211 2.0 5.0 0.00 0.00 0.00 54 1023.5
20260508055803 48 340 2.0 3.0 0.00 0.00 0.00 58 1023.5
20260508055305 47 168 1.0 5.0 0.00 0.00 0.00 58 1023.5
20260508054802 47 244 1.0 3.0 0.00 0.00 0.00 60 1023.5
20260508054302 46 212 0.0 3.0 0.00 0.00 0.00 64 1023.5
20260508053803 46 212 1.0 3.0 0.00 0.00 0.00 65 1023.5
20260508053302 45 155 2.0 5.0 0.00 0.00 0.00 67 1023.5
20260508052803 45 172 1.0 3.0 0.00 0.00 0.00 71 1023.5
20260508051802 44 196 0.0 2.0 0.00 0.00 0.00 78 1023.5
20260508051303 43 196 1.0 3.0 0.00 0.00 0.00 81 1023.4
20260508050802 42 336 0.0 2.0 0.00 0.00 0.00 85 1023.4
20260508050303 42 201 1.0 2.0 0.00 0.00 0.00 88 1023.2
20260508045306 41 132 0.0 2.0 0.00 0.00 0.00 94 1022.3
20260508043302 40 85 0.0 1.0 0.00 0.00 0.00 95 1022.3
20260508041802 39 45 0.0 2.0 0.00 0.00 0.00 96 1022.3
20260508041303 39 337 0.0 1.0 0.00 0.00 0.00 96 1022.3
20260508040802 38 334 0.0 1.0 0.00 0.00 0.00 96 1022.3
20260508040302 38 330 0.0 1.0 0.00 0.00 0.00 95 1022.3
20260508035803 38 330 0.0 1.0 0.00 0.00 0.00 95 1022.3
20260508034802 38 25 0.0 1.0 0.00 0.00 0.00 96 1022.3
20260508034302 37 5 0.0 1.0 0.00 0.00 0.00 95 1022.3
20260508033302 37 23 1.0 3.0 0.00 0.00 0.00 95 1022.3
20260508032803 37 32 0.0 0.0 0.00 0.00 0.00 95 1022.3
20260508032306 36 32 0.0 0.0 0.00 0.00 0.00 95 1022.3
20260508031802 36 32 0.0 0.0 0.00 0.00 0.00 95 1022.3
20260508031302 36 32 0.0 0.0 0.00 0.00 0.00 95 1021.8
20260508030803 36 32 0.0 0.0 0.00 0.00 0.00 95 1021.8
20260508030302 36 32 0.0 0.0 0.00 0.00 0.00 95 1021.8
20260508025803 36 32 0.0 0.0 0.00 0.00 0.00 95 1021.8
20260508025305 36 32 0.0 0.0 0.00 0.00 0.00 95 1021.8
20260508024302 36 32 0.0 0.0 0.00 0.00 0.00 95 1021.8
20260508023803 36 32 0.0 0.0 0.00 0.00 0.00 95 1021.8
20260508023303 35 32 0.0 0.0 0.00 0.00 0.00 95 1021.8
20260508022306 35 32 0.0 0.0 0.00 0.00 0.00 95 1021.5
20260508021802 34 32 0.0 0.0 0.00 0.00 0.00 94 1021.5
20260508021303 34 32 0.0 0.0 0.00 0.00 0.00 94 1021.5
20260508020802 34 32 0.0 0.0 0.00 0.00 0.00 94 1021.5
20260508015802 34 32 0.0 0.0 0.00 0.00 0.00 94 1021.5
20260508015305 34 32 0.0 0.0 0.00 0.00 0.00 94 1021.5
20260508014802 34 32 0.0 0.0 0.00 0.00 0.00 94 1021.5
20260508014303 34 32 0.0 0.0 0.00 0.00 0.00 94 1021.4
20260508013803 34 32 0.0 0.0 0.00 0.00 0.00 93 1021.4
20260508013302 35 32 0.0 0.0 0.00 0.00 0.00 94 1021.4
20260508012802 35 32 0.0 0.0 0.00 0.00 0.00 94 1021.3
20260508012307 34 32 0.0 0.0 0.00 0.00 0.00 94 1021.3
20260508011802 34 32 0.0 0.0 0.00 0.00 0.00 94 1019.7
20260508011303 34 32 0.0 0.0 0.00 0.00 0.00 93 1019.7
20260508010802 34 32 0.0 0.0 0.00 0.00 0.00 94 1019.7
20260508005803 34 32 0.0 0.0 0.00 0.00 0.00 93 1019.7
20260508005305 34 32 0.0 0.0 0.00 0.00 0.00 93 1019.7
20260508004803 34 32 0.0 0.0 0.00 0.00 0.00 93 1019.7
20260508004303 34 32 0.0 0.0 0.00 0.00 0.00 93 1019.7
20260508003803 34 32 0.0 0.0 0.00 0.00 0.00 93 1019.7
20260508003302 34 32 0.0 0.0 0.00 0.00 0.00 92 1019.7
20260508002803 35 32 0.0 0.0 0.00 0.00 0.00 92 1019.7
20260508002306 34 32 0.0 0.0 0.00 0.00 0.00 92 1019.7
20260508001803 35 32 0.0 0.0 0.00 0.00 0.00 92 1019.7
20260508001302 35 32 0.0 0.0 0.00 0.00 0.00 92 1019.7
20260508000803 35 32 0.0 0.0 0.00 0.00 0.00 92 1019.7
20260508000305 35 32 0.0 0.0 0.00 0.00 0.00 91 1019.7
20260507235803 35 32 0.0 0.0 0.00 0.00 0.00 90 1019.7
20260507234803 35 32 0.0 0.0 0.00 0.00 0.00 91 1019.7
20260507233803 35 32 0.0 0.0 0.00 0.00 0.00 90 1019.7
20260507233303 35 32 0.0 0.0 0.00 0.00 0.00 88 1019.7
20260507232803 36 32 0.0 0.0 0.00 0.00 0.00 89 1019.7
20260507232306 36 32 0.0 0.0 0.00 0.00 0.00 90 1019.7
20260507231803 35 32 0.0 0.0 0.00 0.00 0.00 89 1019.7